(270) Anahita

Orbital Elements

The following orbital elements are taken from MPC 22573:
  (270) Anahita
Epoch 2001 Apr. 1.0 TT = JDT 2452000.5   (M-c)          Goffin
M 326.34313              (2000.0)            P               Q
n   0.30236068     Peri.   79.92929     +0.90252377     +0.42879419
a   2.1984631      Node   254.67052     -0.40951386     +0.82595622
e   0.1500201      Incl.    2.36692     -0.13322630     +0.36596701
P   3.26           H    8.75          G   0.15
From 388 observations at 55 oppositions, 1887-1993, mean residual 1".00.
An explanation of the orbital elements is available.

These orbital elements are also available in forms suitable for loading into a number of popular planetarium-type software programs.


Ephemeris

The following ephemeris is at intervals of five days. A daily ephemeris covering the same time interval is also available.

Date    TT    R. A. (2000) Decl.     Delta      r     Elong.  Phase     V
 
2001 07 20    00 09.11   +04 52.8    1.217    1.869   113.3    30.0    11.8
2001 07 25    00 12.80   +05 26.8    1.174    1.869   117.0    29.0    11.7
2001 07 30    00 15.79   +05 56.3    1.133    1.869   120.8    27.8    11.6
2001 08 04    00 18.03   +06 20.9    1.094    1.870   124.9    26.4    11.5
2001 08 09    00 19.47   +06 40.2    1.057    1.871   129.2    24.8    11.4
2001 08 14    00 20.07   +06 53.7    1.023    1.872   133.8    23.0    11.3
2001 08 19    00 19.80   +07 01.0    0.991    1.874   138.5    20.9    11.1
2001 08 24    00 18.65   +07 01.9    0.964    1.876   143.6    18.7    11.0
2001 08 29    00 16.68   +06 56.2    0.940    1.878   148.8    16.2    10.9
2001 09 03    00 13.94   +06 44.1    0.920    1.881   154.3    13.5    10.7
2001 09 08    00 10.54   +06 25.9    0.905    1.883   159.9    10.6    10.6
2001 09 13    00 06.60   +06 02.2    0.896    1.887   165.5     7.7    10.4
2001 09 18    00 02.30   +05 33.9    0.891    1.890   171.0     4.8    10.3
2001 09 23    23 57.86   +05 02.2    0.892    1.894   174.9     2.7    10.2
2001 09 28    23 53.49   +04 28.6    0.899    1.898   173.4     3.5    10.2
2001 10 03    23 49.38   +03 54.7    0.911    1.902   168.3     6.1    10.4
2001 10 08    23 45.73   +03 21.8    0.929    1.907   162.7     9.0    10.6
2001 10 13    23 42.69   +02 51.4    0.953    1.911   157.1    11.7    10.8
2001 10 18    23 40.36   +02 24.4    0.981    1.917   151.5    14.4    10.9
2001 10 23    23 38.85   +02 01.8    1.014    1.922   146.1    16.8    11.1
2001 10 28    23 38.20   +01 44.4    1.051    1.927   140.9    19.0    11.3
2001 11 02    23 38.40   +01 32.3    1.093    1.933   135.9    20.9    11.4
2001 11 07    23 39.44   +01 25.7    1.138    1.939   131.1    22.6    11.6
2001 11 12    23 41.28   +01 24.6    1.186    1.945   126.6    24.1    11.7
2001 11 17    23 43.88   +01 28.8    1.237    1.952   122.2    25.4    11.8

Back to Bright Minor Planets

Astronomical Headlines Index

MPC